QPF
0.00 0.00 0.00 0.00 0.00 0.00 0.00 0.00 0.00 0.00 0.00 0.00 0.00 0.00 0.00 0.00 0.00 0.01 0.00 0.00 0.00 0.00 0.01 0.01 0.03 0.05 0.07 0.06 0.05 0.04 0.04 0.03 0.04 0.03 0.02 0.03 0.04 0.04 0.03 0.05 0.07 0.09 0.12 0.13 0.12 0.12 0.12 0.13 0.09
0.00 0.00 0.00 0.00 0.00 0.00 0.00 0.00 0.00 0.00 0.00 0.00 0.00 0.00 0.00 0.00 0.00 0.00 0.00 0.00 0.00 0.02 0.02 0.02 0.03 0.04 0.04 0.04 0.05 0.07 0.06 0.05 0.04 0.03 0.02 0.02 0.03 0.03 0.03 0.04 0.07 0.09 0.11 0.13 0.11 0.11 0.13 0.10 0.07
0.00 0.00 0.00 0.00 0.00 0.00 0.00 0.00 0.00 0.00 0.00 0.00 0.00 0.00 0.00 0.00 0.00 0.00 0.00 0.00 0.00 0.01 0.02 0.02 0.02 0.03 0.04 0.05 0.07 0.06 0.06 0.06 0.03 0.02 0.02 0.02 0.02 0.03 0.03 0.03 0.04 0.06 0.11 0.15 0.12 0.09 0.10 0.08 0.07
0.00 0.00 0.00 0.00 0.00 0.00 0.00 0.00 0.00 0.00 0.00 0.00 0.00 0.00 0.00 0.00 0.00 0.00 0.00 0.00 0.00 0.01 0.01 0.02 0.02 0.03 0.04 0.04 0.03 0.03 0.02 0.02 0.02 0.02 0.02 0.02 0.02 0.03 0.04 0.04 0.04 0.04 0.10 0.19 0.14 0.07 0.07 0.06 0.07
0.00 0.00 0.00 0.00 0.00 0.00 0.00 0.00 0.00 0.00 0.00 0.00 0.00 0.01 0.01 0.00 0.00 0.00 0.00 0.00 0.00 0.00 0.01 0.01 0.02 0.03 0.04 0.04 0.03 0.03 0.02 0.02 0.02 0.01 0.01 0.01 0.02 0.02 0.03 0.04 0.04 0.05 0.08 0.15 0.12 0.07 0.05 0.05 0.08
0.00 0.00 0.00 0.00 0.00 0.00 0.00 0.00 0.00 0.00 0.00 0.00 0.00 0.01 0.01 0.00 0.00 0.00 0.00 0.00 0.00 0.00 0.01 0.01 0.02 0.03 0.04 0.04 0.04 0.04 0.03 0.01 0.02 0.01 0.01 0.01 0.01 0.02 0.03 0.05 0.05 0.07 0.09 0.09 0.10 0.08 0.06 0.06 0.08
0.00 0.00 0.00 0.00 0.00 0.00 0.00 0.00 0.00 0.00 0.00 0.00 0.00 0.01 0.01 0.00 0.00 0.00 0.00 0.00 0.00 0.00 0.01 0.02 0.02 0.02 0.03 0.04 0.04 0.03 0.02 0.02 0.03 0.03 0.03 0.02 0.02 0.02 0.04 0.05 0.04 0.05 0.06 0.05 0.08 0.07 0.05 0.05 0.06
0.00 0.00 0.00 0.00 0.00 0.00 0.00 0.00 0.00 0.00 0.00 0.00 0.00 0.01 0.01 0.01 0.00 0.00 0.00 0.00 0.00 0.00 0.01 0.02 0.02 0.03 0.03 0.03 0.03 0.03 0.03 0.02 0.02 0.02 0.02 0.03 0.03 0.03 0.04 0.05 0.06 0.07 0.05 0.04 0.06 0.06 0.05 0.05 0.04
0.00 0.00 0.00 0.00 0.00 0.00 0.00 0.00 0.00 0.00 0.00 0.00 0.00 0.00 0.00 0.01 0.01 0.01 0.01 0.01 0.01 0.00 0.00 0.01 0.01 0.02 0.03 0.03 0.02 0.02 0.02 0.02 0.02 0.02 0.01 0.02 0.03 0.04 0.05 0.07 0.08 0.07 0.05 0.04 0.04 0.05 0.05 0.05 0.04
0.00 0.00 0.00 0.00 0.00 0.00 0.00 0.00 0.00 0.01 0.00 0.00 0.00 0.00 0.01 0.01 0.01 0.01 0.00 0.00 0.00 0.00 0.00 0.01 0.01 0.01 0.02 0.02 0.02 0.03 0.02 0.02 0.02 0.03 0.02 0.02 0.03 0.04 0.04 0.05 0.07 0.07 0.06 0.05 0.05 0.04 0.04 0.04 0.04
0.00 0.00 0.00 0.00 0.00 0.00 0.00 0.00 0.00 0.01 0.01 0.00 0.00 0.00 0.01 0.01 0.01 0.00 0.00 0.00 0.00 0.00 0.00 0.01 0.01 0.01 0.02 0.02 0.03 0.04 0.03 0.03 0.04 0.04 0.03 0.03 0.04 0.04 0.04 0.04 0.05 0.06 0.05 0.03 0.04 0.03 0.03 0.03 0.03
0.00 0.00 0.00 0.00 0.00 0.00 0.01 0.02 0.01 0.00 0.01 0.00 0.00 0.00 0.00 0.00 0.00 0.00 0.01 0.00 0.01 0.00 0.00 0.01 0.01 0.01 0.01 0.02 0.02 0.02 0.02 0.03 0.03 0.03 0.02 0.02 0.03 0.04 0.05 0.05 0.04 0.04 0.03 0.03 0.02 0.03 0.03 0.02 0.02
0.00 0.00 0.00 0.00 0.00 0.00 0.01 0.02 0.00 0.00 0.00 0.00 0.00 0.00 0.00 0.00 0.00 0.00 0.00 0.01 0.01 0.00 0.00 0.01 0.00 0.01 0.01 0.02 0.02 0.02 0.02 0.02 0.03 0.03 0.02 0.02 0.02 0.03 0.03 0.04 0.05 0.04 0.04 0.04 0.04 0.04 0.05 0.03 0.02
0.00 0.00 0.00 0.00 0.00 0.01 0.01 0.00 0.00 0.00 0.00 0.00 0.00 0.00 0.00 0.00 0.00 0.00 0.00 0.00 0.01 0.01 0.00 0.01 0.01 0.01 0.01 0.01 0.01 0.02 0.02 0.02 0.02 0.02 0.02 0.02 0.02 0.02 0.03 0.03 0.05 0.04 0.04 0.06 0.06 0.05 0.04 0.04 0.03
0.00 0.01 0.01 0.01 0.00 0.00 0.00 0.00 0.00 0.00 0.00 0.00 0.00 0.00 0.00 0.00 0.00 0.00 0.01 0.01 0.01 0.01 0.01 0.01 0.01 0.02 0.01 0.01 0.01 0.01 0.02 0.02 0.02 0.02 0.02 0.02 0.02 0.01 0.01 0.02 0.03 0.05 0.04 0.06 0.08 0.06 0.05 0.04 0.04
0.01 0.02 0.02 0.01 0.00 0.00 0.00 0.00 0.00 0.00 0.00 0.00 0.00 0.00 0.00 0.00 0.00 0.00 0.01 0.02 0.02 0.02 0.03 0.05 0.02 0.02 0.02 0.02 0.02 0.03 0.03 0.03 0.03 0.02 0.02 0.02 0.02 0.01 0.01 0.02 0.03 0.05 0.04 0.05 0.08 0.06 0.05 0.04 0.04
0.01 0.02 0.01 0.00 0.00 0.00 0.00 0.01 0.01 0.01 0.01 0.00 0.00 0.00 0.00 0.00 0.01 0.01 0.01 0.01 0.02 0.03 0.06 0.09 0.06 0.04 0.02 0.02 0.03 0.03 0.04 0.04 0.03 0.02 0.02 0.02 0.02 0.02 0.02 0.02 0.03 0.04 0.03 0.04 0.04 0.03 0.04 0.05 0.05
0.01 0.01 0.00 0.00 0.00 0.00 0.00 0.00 0.01 0.01 0.01 0.00 0.01 0.00 0.00 0.01 0.01 0.01 0.01 0.01 0.02 0.05 0.09 0.07 0.07 0.05 0.04 0.04 0.04 0.04 0.05 0.04 0.03 0.03 0.03 0.02 0.01 0.01 0.01 0.01 0.02 0.02 0.03 0.04 0.04 0.03 0.03 0.03 0.05
0.00 0.00 0.00 0.00 0.00 0.00 0.00 0.00 0.00 0.00 0.01 0.01 0.01 0.00 0.00 0.01 0.01 0.01 0.03 0.01 0.01 0.03 0.08 0.07 0.05 0.04 0.04 0.04 0.04 0.04 0.05 0.05 0.06 0.05 0.03 0.02 0.01 0.01 0.01 0.01 0.02 0.03 0.03 0.03 0.05 0.04 0.04 0.03 0.04
0.00 0.00 0.00 0.00 0.00 0.00 0.00 0.00 0.00 0.00 0.00 0.00 0.00 0.00 0.00 0.01 0.01 0.01 0.01 0.00 0.00 0.01 0.04 0.05 0.04 0.03 0.02 0.03 0.03 0.03 0.03 0.06 0.07 0.04 0.03 0.03 0.02 0.02 0.01 0.02 0.03 0.04 0.05 0.05 0.04 0.04 0.04 0.03 0.03
0.00 0.00 0.00 0.00 0.00 0.00 0.00 0.00 0.00 0.01 0.01 0.00 0.00 0.01 0.00 0.00 0.00 0.01 0.00 0.00 0.00 0.01 0.02 0.03 0.03 0.02 0.02 0.03 0.04 0.04 0.05 0.09 0.12 0.07 0.04 0.04 0.04 0.03 0.03 0.03 0.03 0.04 0.04 0.05 0.05 0.04 0.04 0.04 0.04
0.00 0.00 0.00 0.00 0.00 0.00 0.00 0.00 0.00 0.00 0.00 0.00 0.00 0.01 0.00 0.00 0.00 0.01 0.00 0.01 0.01 0.01 0.01 0.02 0.03 0.02 0.02 0.03 0.04 0.04 0.04 0.05 0.08 0.07 0.04 0.05 0.04 0.04 0.04 0.03 0.03 0.04 0.04 0.05 0.05 0.04 0.04 0.04 0.05
0.00 0.00 0.00 0.00 0.00 0.00 0.00 0.00 0.00 0.00 0.00 0.00 0.00 0.01 0.01 0.00 0.01 0.01 0.02 0.02 0.02 0.02 0.02 0.02 0.03 0.03 0.03 0.03 0.03 0.03 0.03 0.02 0.02 0.03 0.03 0.05 0.05 0.05 0.04 0.04 0.04 0.05 0.05 0.05 0.06 0.05 0.04 0.04 0.04
0.00 0.00 0.00 0.00 0.00 0.00 0.00 0.00 0.01 0.00 0.00 0.00 0.00 0.01 0.01 0.01 0.01 0.01 0.03 0.03 0.03 0.01 0.02 0.03 0.02 0.03 0.02 0.03 0.02 0.02 0.02 0.02 0.02 0.02 0.03 0.04 0.04 0.04 0.03 0.03 0.04 0.04 0.04 0.04 0.05 0.05 0.04 0.03 0.04
0.00 0.00 0.00 0.01 0.01 0.00 0.00 0.00 0.00 0.00 0.00 0.01 0.01 0.01 0.01 0.01 0.01 0.02 0.04 0.04 0.02 0.01 0.02 0.02 0.02 0.02 0.02 0.02 0.03 0.02 0.02 0.02 0.02 0.02 0.02 0.03 0.03 0.02 0.03 0.04 0.04 0.04 0.03 0.03 0.04 0.04 0.04 0.05 0.05
0.00 0.00 0.00 0.01 0.01 0.00 0.00 0.01 0.00 0.00 0.01 0.01 0.02 0.04 0.03 0.02 0.02 0.03 0.03 0.03 0.02 0.01 0.01 0.01 0.01 0.01 0.02 0.02 0.03 0.03 0.02 0.02 0.02 0.02 0.02 0.02 0.02 0.02 0.02 0.03 0.04 0.04 0.03 0.03 0.03 0.03 0.04 0.05 0.05
0.00 0.00 0.00 0.01 0.01 0.01 0.01 0.01 0.01 0.01 0.01 0.02 0.06 0.10 0.05 0.03 0.04 0.05 0.04 0.02 0.02 0.01 0.01 0.02 0.01 0.01 0.01 0.02 0.02 0.03 0.04 0.03 0.02 0.02 0.02 0.01 0.01 0.01 0.02 0.03 0.04 0.04 0.03 0.03 0.04 0.04 0.04 0.05 0.05
0.00 0.00 0.01 0.01 0.01 0.01 0.01 0.02 0.01 0.01 0.01 0.02 0.08 0.14 0.08 0.04 0.03 0.02 0.02 0.02 0.02 0.01 0.02 0.02 0.01 0.01 0.01 0.01 0.01 0.01 0.02 0.02 0.02 0.01 0.01 0.01 0.01 0.01 0.01 0.01 0.02 0.03 0.04 0.03 0.03 0.04 0.04 0.05 0.04
0.00 0.00 0.01 0.02 0.02 0.02 0.02 0.02 0.02 0.01 0.02 0.03 0.08 0.16 0.09 0.04 0.03 0.03 0.02 0.02 0.01 0.01 0.01 0.01 0.01 0.01 0.01 0.01 0.01 0.02 0.01 0.01 0.01 0.01 0.01 0.01 0.01 0.01 0.01 0.02 0.02 0.04 0.05 0.05 0.04 0.02 0.02 0.02 0.03
0.00 0.00 0.01 0.02 0.02 0.02 0.03 0.03 0.02 0.01 0.02 0.04 0.10 0.16 0.09 0.05 0.04 0.03 0.02 0.01 0.01 0.01 0.01 0.01 0.00 0.00 0.01 0.02 0.03 0.03 0.02 0.01 0.01 0.01 0.01 0.01 0.01 0.01 0.01 0.02 0.02 0.04 0.05 0.07 0.06 0.05 0.03 0.04 0.04
MSLP
1006.93 1007.36 1007.76 1008.08 1008.26 1008.31 1008.25 1008.15 1008.06 1008.05 1008.14 1008.33 1008.57 1008.81 1008.99 1009.07 1009.04 1008.92 1008.77 1008.65 1008.62 1008.73 1009.00 1009.38 1009.81 1010.21 1010.50 1010.60 1010.49 1010.18 1009.72 1009.18 1008.65 1008.19 1007.85 1007.63 1007.50 1007.39 1007.24 1006.98 1006.55 1005.96 1005.23 1004.43 1003.66 1002.99 1002.51 1002.28 1002.31
1006.96 1007.43 1007.85 1008.14 1008.29 1008.28 1008.16 1007.99 1007.85 1007.79 1007.83 1007.97 1008.17 1008.37 1008.53 1008.60 1008.59 1008.51 1008.42 1008.39 1008.46 1008.67 1009.02 1009.46 1009.92 1010.33 1010.62 1010.72 1010.64 1010.37 1009.98 1009.54 1009.11 1008.75 1008.48 1008.29 1008.16 1008.04 1007.85 1007.57 1007.17 1006.66 1006.07 1005.46 1004.90 1004.44 1004.15 1004.04 1004.12
1007.11 1007.60 1008.02 1008.28 1008.37 1008.29 1008.10 1007.88 1007.68 1007.58 1007.59 1007.70 1007.87 1008.04 1008.18 1008.25 1008.24 1008.19 1008.15 1008.19 1008.33 1008.61 1009.02 1009.50 1009.99 1010.41 1010.70 1010.82 1010.77 1010.57 1010.27 1009.94 1009.63 1009.36 1009.17 1009.01 1008.88 1008.72 1008.50 1008.19 1007.80 1007.36 1006.89 1006.45 1006.07 1005.80 1005.66 1005.64 1005.75
1007.31 1007.81 1008.20 1008.42 1008.44 1008.30 1008.04 1007.76 1007.53 1007.41 1007.41 1007.51 1007.68 1007.85 1007.99 1008.05 1008.05 1008.02 1008.01 1008.08 1008.27 1008.59 1009.02 1009.52 1010.02 1010.45 1010.74 1010.89 1010.88 1010.75 1010.55 1010.33 1010.13 1009.96 1009.84 1009.72 1009.58 1009.39 1009.13 1008.80 1008.42 1008.03 1007.66 1007.34 1007.12 1006.99 1006.96 1007.01 1007.13
1007.48 1007.97 1008.32 1008.47 1008.42 1008.21 1007.91 1007.60 1007.36 1007.24 1007.26 1007.39 1007.58 1007.78 1007.93 1008.00 1008.01 1007.99 1007.99 1008.08 1008.28 1008.61 1009.06 1009.56 1010.05 1010.46 1010.76 1010.92 1010.95 1010.89 1010.77 1010.65 1010.55 1010.48 1010.41 1010.33 1010.20 1010.00 1009.72 1009.37 1009.00 1008.65 1008.35 1008.14 1008.02 1007.99 1008.03 1008.11 1008.21
1007.56 1007.99 1008.27 1008.35 1008.23 1007.97 1007.63 1007.31 1007.09 1007.01 1007.08 1007.27 1007.52 1007.76 1007.95 1008.05 1008.08 1008.07 1008.08 1008.17 1008.37 1008.70 1009.13 1009.61 1010.08 1010.48 1010.76 1010.93 1010.98 1010.96 1010.91 1010.87 1010.85 1010.85 1010.84 1010.80 1010.68 1010.48 1010.20 1009.87 1009.52 1009.20 1008.96 1008.82 1008.77 1008.79 1008.86 1008.93 1009.00
1007.47 1007.83 1008.02 1008.02 1007.83 1007.53 1007.18 1006.88 1006.69 1006.68 1006.82 1007.09 1007.41 1007.73 1007.97 1008.13 1008.19 1008.21 1008.24 1008.33 1008.53 1008.84 1009.25 1009.70 1010.13 1010.50 1010.76 1010.92 1010.97 1010.97 1010.96 1010.96 1011.00 1011.05 1011.09 1011.09 1011.01 1010.83 1010.57 1010.26 1009.95 1009.68 1009.48 1009.38 1009.37 1009.41 1009.47 1009.53 1009.55
1007.23 1007.48 1007.58 1007.49 1007.26 1006.92 1006.58 1006.31 1006.18 1006.23 1006.46 1006.81 1007.23 1007.62 1007.95 1008.17 1008.29 1008.35 1008.40 1008.51 1008.71 1009.01 1009.39 1009.82 1010.22 1010.55 1010.78 1010.90 1010.94 1010.94 1010.94 1010.96 1011.02 1011.11 1011.19 1011.22 1011.18 1011.05 1010.83 1010.56 1010.29 1010.06 1009.90 1009.83 1009.83 1009.88 1009.93 1009.95 1009.94
1006.86 1007.01 1007.02 1006.86 1006.58 1006.24 1005.91 1005.67 1005.60 1005.73 1006.03 1006.46 1006.96 1007.44 1007.84 1008.14 1008.33 1008.44 1008.55 1008.68 1008.90 1009.20 1009.56 1009.96 1010.33 1010.62 1010.81 1010.91 1010.92 1010.90 1010.88 1010.90 1010.97 1011.07 1011.18 1011.25 1011.25 1011.16 1010.99 1010.78 1010.56 1010.37 1010.24 1010.19 1010.20 1010.24 1010.28 1010.28 1010.24
1006.45 1006.51 1006.43 1006.23 1005.93 1005.58 1005.28 1005.08 1005.06 1005.23 1005.59 1006.08 1006.64 1007.19 1007.66 1008.03 1008.30 1008.48 1008.64 1008.83 1009.07 1009.38 1009.74 1010.12 1010.46 1010.72 1010.89 1010.95 1010.93 1010.88 1010.84 1010.84 1010.90 1011.01 1011.13 1011.22 1011.26 1011.22 1011.11 1010.94 1010.77 1010.62 1010.52 1010.48 1010.50 1010.54 1010.56 1010.56 1010.52
1006.07 1006.05 1005.93 1005.70 1005.39 1005.07 1004.79 1004.63 1004.64 1004.84 1005.22 1005.74 1006.33 1006.92 1007.45 1007.88 1008.22 1008.48 1008.70 1008.94 1009.22 1009.55 1009.92 1010.29 1010.62 1010.86 1011.00 1011.04 1011.00 1010.93 1010.86 1010.84 1010.89 1010.99 1011.11 1011.22 1011.29 1011.29 1011.22 1011.10 1010.96 1010.84 1010.76 1010.74 1010.76 1010.80 1010.84 1010.85 1010.82
1005.78 1005.72 1005.57 1005.34 1005.05 1004.75 1004.51 1004.37 1004.39 1004.59 1004.96 1005.48 1006.07 1006.67 1007.23 1007.72 1008.12 1008.44 1008.73 1009.03 1009.35 1009.70 1010.09 1010.47 1010.79 1011.03 1011.16 1011.19 1011.14 1011.06 1010.98 1010.94 1010.97 1011.06 1011.18 1011.30 1011.39 1011.42 1011.38 1011.28 1011.17 1011.07 1011.00 1010.99 1011.02 1011.07 1011.13 1011.17 1011.18
1005.61 1005.53 1005.38 1005.17 1004.91 1004.65 1004.42 1004.30 1004.31 1004.48 1004.83 1005.31 1005.87 1006.47 1007.05 1007.57 1008.02 1008.41 1008.76 1009.11 1009.47 1009.86 1010.26 1010.65 1010.98 1011.23 1011.37 1011.40 1011.36 1011.27 1011.19 1011.15 1011.17 1011.24 1011.36 1011.48 1011.58 1011.62 1011.60 1011.52 1011.42 1011.33 1011.27 1011.26 1011.30 1011.38 1011.47 1011.55 1011.60
1005.55 1005.47 1005.34 1005.16 1004.93 1004.70 1004.49 1004.36 1004.34 1004.48 1004.77 1005.20 1005.73 1006.31 1006.90 1007.45 1007.95 1008.40 1008.81 1009.20 1009.60 1010.01 1010.43 1010.83 1011.18 1011.44 1011.60 1011.66 1011.64 1011.57 1011.50 1011.45 1011.47 1011.54 1011.65 1011.77 1011.86 1011.91 1011.90 1011.83 1011.73 1011.64 1011.59 1011.58 1011.63 1011.73 1011.86 1011.98 1012.08
1005.55 1005.48 1005.38 1005.22 1005.03 1004.82 1004.61 1004.46 1004.41 1004.49 1004.72 1005.10 1005.59 1006.16 1006.76 1007.35 1007.90 1008.40 1008.87 1009.31 1009.74 1010.17 1010.60 1011.01 1011.37 1011.66 1011.84 1011.94 1011.95 1011.91 1011.86 1011.83 1011.84 1011.91 1012.01 1012.12 1012.21 1012.26 1012.25 1012.19 1012.10 1012.01 1011.95 1011.95 1012.01 1012.13 1012.29 1012.45 1012.60
1005.57 1005.52 1005.44 1005.31 1005.14 1004.93 1004.72 1004.53 1004.43 1004.45 1004.62 1004.94 1005.41 1005.97 1006.60 1007.23 1007.84 1008.41 1008.93 1009.42 1009.88 1010.33 1010.77 1011.19 1011.56 1011.87 1012.09 1012.22 1012.28 1012.27 1012.25 1012.23 1012.24 1012.30 1012.39 1012.49 1012.58 1012.63 1012.63 1012.58 1012.50 1012.41 1012.36 1012.36 1012.43 1012.56 1012.74 1012.94 1013.11
1005.56 1005.53 1005.48 1005.37 1005.21 1005.00 1004.76 1004.53 1004.36 1004.31 1004.42 1004.70 1005.14 1005.71 1006.37 1007.07 1007.75 1008.40 1008.98 1009.52 1010.01 1010.48 1010.93 1011.35 1011.74 1012.07 1012.32 1012.50 1012.59 1012.63 1012.63 1012.62 1012.63 1012.68 1012.76 1012.85 1012.93 1012.99 1013.00 1012.97 1012.91 1012.84 1012.80 1012.80 1012.88 1013.01 1013.20 1013.41 1013.60
1005.51 1005.51 1005.49 1005.41 1005.26 1005.03 1004.75 1004.46 1004.22 1004.10 1004.13 1004.36 1004.78 1005.37 1006.08 1006.84 1007.61 1008.33 1008.99 1009.58 1010.11 1010.60 1011.06 1011.49 1011.89 1012.24 1012.53 1012.74 1012.88 1012.95 1012.98 1012.98 1012.99 1013.03 1013.09 1013.17 1013.25 1013.32 1013.35 1013.35 1013.32 1013.28 1013.25 1013.26 1013.33 1013.46 1013.64 1013.85 1014.05
1005.41 1005.46 1005.48 1005.44 1005.31 1005.07 1004.75 1004.40 1004.07 1003.85 1003.81 1003.98 1004.37 1004.97 1005.72 1006.55 1007.39 1008.20 1008.94 1009.59 1010.16 1010.67 1011.13 1011.58 1011.99 1012.36 1012.69 1012.95 1013.13 1013.24 1013.29 1013.31 1013.32 1013.33 1013.38 1013.45 1013.53 1013.61 1013.68 1013.71 1013.72 1013.71 1013.71 1013.72 1013.78 1013.90 1014.05 1014.24 1014.43
1005.25 1005.38 1005.49 1005.51 1005.42 1005.18 1004.82 1004.39 1003.97 1003.65 1003.50 1003.60 1003.94 1004.53 1005.30 1006.19 1007.11 1007.99 1008.80 1009.51 1010.12 1010.66 1011.14 1011.60 1012.03 1012.44 1012.80 1013.10 1013.33 1013.49 1013.57 1013.60 1013.61 1013.62 1013.65 1013.71 1013.79 1013.89 1013.98 1014.06 1014.11 1014.14 1014.16 1014.18 1014.23 1014.32 1014.44 1014.60 1014.76
1005.05 1005.30 1005.52 1005.65 1005.61 1005.40 1005.01 1004.51 1003.99 1003.54 1003.28 1003.26 1003.54 1004.08 1004.85 1005.77 1006.74 1007.70 1008.57 1009.33 1009.99 1010.56 1011.06 1011.54 1012.00 1012.44 1012.85 1013.21 1013.49 1013.70 1013.82 1013.87 1013.88 1013.89 1013.91 1013.96 1014.05 1014.16 1014.29 1014.40 1014.50 1014.56 1014.61 1014.64 1014.67 1014.72 1014.81 1014.92 1015.05
1004.82 1005.21 1005.58 1005.82 1005.88 1005.70 1005.30 1004.74 1004.11 1003.54 1003.14 1003.00 1003.17 1003.65 1004.39 1005.31 1006.31 1007.31 1008.24 1009.05 1009.75 1010.35 1010.89 1011.39 1011.88 1012.37 1012.83 1013.25 1013.59 1013.86 1014.03 1014.12 1014.15 1014.16 1014.17 1014.22 1014.31 1014.44 1014.59 1014.74 1014.88 1014.98 1015.05 1015.09 1015.11 1015.13 1015.17 1015.24 1015.32
1004.57 1005.11 1005.62 1006.00 1006.15 1006.03 1005.63 1005.02 1004.30 1003.60 1003.06 1002.79 1002.84 1003.22 1003.90 1004.80 1005.81 1006.84 1007.81 1008.67 1009.41 1010.05 1010.63 1011.16 1011.69 1012.22 1012.73 1013.21 1013.63 1013.96 1014.19 1014.33 1014.39 1014.42 1014.44 1014.49 1014.58 1014.72 1014.89 1015.08 1015.25 1015.38 1015.47 1015.52 1015.53 1015.53 1015.54 1015.56 1015.61
1004.31 1004.96 1005.60 1006.10 1006.34 1006.28 1005.89 1005.25 1004.45 1003.65 1002.98 1002.57 1002.49 1002.78 1003.39 1004.25 1005.26 1006.30 1007.30 1008.21 1008.99 1009.67 1010.28 1010.85 1011.42 1011.99 1012.56 1013.11 1013.60 1014.00 1014.30 1014.49 1014.60 1014.65 1014.68 1014.74 1014.83 1014.98 1015.17 1015.38 1015.58 1015.74 1015.86 1015.92 1015.94 1015.93 1015.91 1015.91 1015.93
1004.06 1004.76 1005.47 1006.04 1006.35 1006.33 1005.97 1005.31 1004.46 1003.58 1002.80 1002.28 1002.10 1002.30 1002.84 1003.66 1004.65 1005.71 1006.74 1007.68 1008.51 1009.23 1009.88 1010.48 1011.09 1011.71 1012.33 1012.94 1013.49 1013.96 1014.32 1014.57 1014.73 1014.81 1014.87 1014.93 1015.04 1015.19 1015.39 1015.62 1015.85 1016.04 1016.19 1016.28 1016.32 1016.32 1016.29 1016.28 1016.28
1003.83 1004.49 1005.19 1005.77 1006.11 1006.12 1005.78 1005.13 1004.26 1003.33 1002.50 1001.91 1001.65 1001.77 1002.26 1003.04 1004.02 1005.09 1006.14 1007.12 1007.99 1008.76 1009.44 1010.09 1010.73 1011.38 1012.04 1012.69 1013.30 1013.83 1014.25 1014.56 1014.76 1014.88 1014.96 1015.05 1015.16 1015.32 1015.53 1015.78 1016.03 1016.26 1016.44 1016.57 1016.64 1016.66 1016.66 1016.65 1016.65
1003.62 1004.15 1004.76 1005.29 1005.62 1005.63 1005.31 1004.68 1003.83 1002.91 1002.06 1001.44 1001.14 1001.22 1001.67 1002.42 1003.39 1004.47 1005.55 1006.56 1007.47 1008.28 1009.00 1009.68 1010.35 1011.03 1011.72 1012.40 1013.05 1013.62 1014.09 1014.44 1014.69 1014.85 1014.95 1015.06 1015.18 1015.35 1015.57 1015.83 1016.11 1016.37 1016.60 1016.77 1016.88 1016.94 1016.97 1016.99 1017.01
1003.43 1003.76 1004.21 1004.64 1004.91 1004.91 1004.61 1004.03 1003.23 1002.35 1001.54 1000.93 1000.63 1000.70 1001.13 1001.86 1002.82 1003.89 1004.98 1006.02 1006.96 1007.81 1008.56 1009.27 1009.96 1010.66 1011.37 1012.07 1012.74 1013.34 1013.84 1014.23 1014.51 1014.70 1014.84 1014.97 1015.11 1015.29 1015.52 1015.80 1016.09 1016.39 1016.65 1016.87 1017.03 1017.14 1017.22 1017.27 1017.32
1003.24 1003.34 1003.60 1003.90 1004.09 1004.08 1003.80 1003.28 1002.56 1001.77 1001.03 1000.48 1000.21 1000.27 1000.68 1001.40 1002.33 1003.39 1004.47 1005.52 1006.48 1007.34 1008.13 1008.86 1009.57 1010.28 1011.00 1011.71 1012.39 1013.01 1013.53 1013.95 1014.26 1014.49 1014.66 1014.80 1014.96 1015.16 1015.40 1015.69 1016.00 1016.32 1016.61 1016.87 1017.08 1017.24 1017.36 1017.46 1017.55
1003.06 1002.93 1003.01 1003.17 1003.29 1003.26 1003.03 1002.59 1001.98 1001.29 1000.65 1000.17 999.93 1000.00 1000.39 1001.06 1001.95 1002.96 1004.02 1005.04 1006.00 1006.88 1007.68 1008.43 1009.16 1009.88 1010.61 1011.33 1012.01 1012.64 1013.19 1013.63 1013.97 1014.23 1014.43 1014.60 1014.78 1015.00 1015.25 1015.55 1015.87 1016.20 1016.51 1016.79 1017.03 1017.23 1017.39 1017.53 1017.66
Thickness
5824 5830 5833 5830 5824 5822 5809 5815 5822 5820 5822 5829 5829 5825 5818 5812 5806 5796 5815 5821 5818 5813 5805 5795 5790 5787 5784 5782 5780 5778 5776 5774 5773 5771 5770 5769 5768 5767 5767 5766 5765 5765 5764 5763 5763 5762 5761 5760 5759
5831 5833 5830 5830 5822 5805 5805 5819 5818 5820 5826 5831 5829 5825 5818 5814 5818 5815 5816 5817 5815 5811 5804 5797 5788 5785 5782 5780 5778 5776 5774 5772 5771 5769 5768 5767 5766 5765 5764 5764 5763 5763 5762 5761 5760 5759 5758 5758 5757
5832 5833 5829 5829 5817 5809 5807 5819 5821 5828 5833 5830 5825 5825 5819 5812 5816 5816 5818 5816 5814 5809 5804 5794 5787 5784 5780 5778 5776 5773 5771 5770 5768 5767 5765 5764 5764 5763 5762 5761 5761 5760 5760 5759 5758 5757 5756 5756 5755
5831 5829 5829 5822 5810 5817 5820 5823 5827 5827 5829 5832 5827 5818 5819 5819 5820 5820 5817 5816 5812 5808 5802 5792 5785 5782 5779 5776 5773 5771 5769 5767 5765 5764 5763 5762 5761 5760 5760 5759 5758 5758 5757 5756 5755 5754 5754 5754 5753
5830 5827 5819 5812 5812 5821 5828 5829 5830 5825 5826 5828 5826 5815 5811 5817 5821 5819 5815 5813 5809 5806 5801 5791 5783 5780 5777 5774 5771 5769 5766 5764 5762 5761 5760 5759 5758 5758 5757 5757 5756 5755 5755 5754 5753 5753 5752 5751 5751
5824 5824 5810 5804 5810 5820 5827 5832 5831 5827 5827 5828 5825 5816 5810 5816 5815 5814 5814 5811 5809 5804 5799 5790 5782 5778 5775 5772 5769 5767 5764 5762 5760 5759 5757 5756 5755 5754 5754 5754 5753 5753 5752 5751 5751 5750 5750 5750 5749
5817 5816 5806 5807 5809 5814 5822 5833 5828 5825 5823 5826 5830 5816 5811 5812 5813 5814 5812 5810 5806 5803 5798 5791 5785 5779 5774 5770 5767 5765 5762 5760 5758 5757 5755 5754 5753 5752 5751 5751 5751 5750 5749 5749 5749 5748 5748 5747 5747
5823 5815 5806 5808 5806 5811 5825 5830 5831 5827 5824 5833 5832 5817 5810 5811 5813 5812 5810 5807 5803 5800 5796 5791 5787 5782 5777 5772 5766 5763 5761 5759 5757 5755 5754 5753 5751 5750 5750 5750 5749 5748 5747 5747 5747 5746 5746 5746 5745
5820 5806 5800 5806 5807 5813 5824 5823 5828 5834 5829 5827 5829 5825 5823 5818 5813 5808 5804 5801 5799 5796 5794 5791 5787 5783 5779 5774 5767 5763 5760 5758 5756 5754 5752 5752 5753 5753 5751 5749 5747 5746 5746 5745 5745 5744 5744 5744 5745
5811 5800 5803 5814 5818 5818 5821 5821 5824 5824 5819 5818 5818 5820 5819 5813 5809 5805 5801 5798 5795 5792 5792 5791 5786 5782 5779 5774 5769 5765 5763 5759 5757 5756 5754 5754 5753 5752 5751 5747 5745 5745 5744 5744 5744 5743 5744 5745 5747
5809 5802 5809 5814 5819 5819 5817 5820 5826 5819 5813 5817 5815 5813 5813 5810 5807 5805 5803 5800 5796 5794 5790 5789 5785 5781 5777 5773 5770 5766 5764 5760 5758 5755 5753 5752 5752 5751 5750 5748 5746 5746 5745 5746 5744 5746 5747 5747 5747
5804 5806 5809 5812 5817 5815 5815 5817 5817 5816 5817 5825 5824 5819 5813 5809 5807 5805 5803 5800 5797 5793 5789 5787 5784 5780 5776 5772 5769 5766 5763 5760 5758 5754 5752 5751 5750 5749 5748 5747 5747 5747 5747 5745 5746 5746 5745 5745 5745
5799 5802 5807 5812 5813 5814 5814 5811 5811 5812 5820 5825 5822 5817 5813 5811 5809 5807 5805 5800 5796 5791 5787 5785 5782 5778 5774 5770 5767 5765 5762 5760 5757 5753 5751 5749 5749 5748 5747 5745 5744 5746 5746 5745 5744 5744 5743 5743 5743
5800 5802 5804 5808 5809 5810 5806 5808 5808 5810 5818 5818 5815 5812 5812 5810 5808 5804 5800 5796 5793 5789 5785 5783 5779 5775 5771 5768 5765 5763 5761 5757 5756 5753 5750 5748 5748 5747 5745 5744 5743 5744 5744 5744 5743 5743 5742 5742 5741
5798 5792 5797 5803 5806 5808 5805 5797 5803 5810 5813 5810 5810 5809 5808 5807 5805 5801 5798 5795 5792 5788 5784 5780 5777 5774 5769 5767 5763 5761 5759 5756 5754 5751 5748 5746 5746 5744 5744 5743 5742 5742 5742 5741 5741 5741 5741 5740 5739
5790 5784 5782 5797 5802 5804 5794 5786 5802 5809 5806 5803 5805 5804 5802 5801 5801 5799 5797 5794 5791 5787 5782 5778 5777 5772 5767 5764 5761 5760 5758 5755 5753 5750 5748 5745 5743 5742 5741 5742 5742 5740 5741 5741 5740 5740 5739 5738 5737
5779 5774 5779 5788 5798 5798 5792 5787 5797 5805 5802 5798 5799 5799 5798 5797 5797 5796 5795 5792 5789 5785 5780 5776 5773 5769 5766 5762 5759 5758 5755 5753 5751 5749 5747 5744 5741 5740 5740 5740 5739 5738 5739 5739 5739 5739 5737 5735 5734
5771 5775 5777 5779 5789 5789 5785 5786 5792 5798 5798 5795 5795 5795 5794 5792 5792 5794 5792 5790 5786 5782 5778 5773 5770 5766 5763 5760 5757 5755 5752 5751 5749 5747 5744 5741 5740 5738 5738 5738 5736 5737 5737 5736 5735 5733 5733 5732 5732
5775 5772 5771 5777 5787 5781 5778 5780 5785 5791 5791 5790 5791 5791 5790 5789 5792 5791 5789 5786 5782 5778 5774 5770 5767 5764 5761 5758 5755 5752 5749 5748 5746 5744 5741 5738 5737 5736 5736 5737 5735 5734 5734 5733 5733 5732 5730 5730 5730
5765 5762 5765 5773 5780 5774 5772 5773 5782 5785 5785 5786 5786 5787 5786 5786 5786 5784 5783 5782 5778 5774 5770 5767 5764 5762 5759 5757 5754 5751 5749 5746 5744 5741 5738 5736 5735 5734 5735 5733 5734 5733 5731 5729 5728 5728 5728 5729 5728
5757 5758 5762 5763 5769 5771 5766 5763 5773 5781 5784 5784 5785 5786 5786 5785 5782 5780 5778 5777 5775 5771 5768 5766 5763 5759 5757 5755 5752 5748 5745 5742 5740 5737 5736 5734 5733 5732 5731 5731 5731 5730 5730 5728 5725 5725 5724 5724 5725
5750 5764 5762 5759 5754 5757 5761 5751 5767 5774 5774 5776 5778 5780 5781 5782 5780 5778 5775 5772 5771 5769 5767 5764 5760 5756 5754 5752 5749 5746 5742 5738 5737 5735 5734 5732 5731 5730 5729 5728 5727 5727 5727 5724 5724 5724 5723 5722 5721
5755 5764 5758 5755 5752 5751 5757 5750 5763 5770 5764 5768 5771 5773 5776 5778 5777 5774 5772 5769 5768 5767 5764 5761 5757 5753 5751 5749 5746 5743 5741 5738 5736 5734 5730 5729 5729 5727 5727 5725 5724 5723 5723 5721 5720 5720 5720 5720 5720
5753 5749 5747 5748 5747 5732 5749 5745 5751 5762 5762 5764 5767 5768 5769 5772 5772 5770 5768 5766 5763 5763 5761 5757 5753 5749 5747 5745 5743 5739 5736 5734 5731 5729 5727 5727 5727 5725 5724 5723 5721 5720 5720 5718 5717 5717 5717 5717 5717
5743 5732 5723 5723 5726 5735 5753 5742 5747 5758 5762 5762 5760 5761 5763 5765 5765 5764 5761 5759 5757 5757 5755 5753 5749 5745 5743 5741 5739 5736 5733 5730 5728 5726 5725 5725 5724 5723 5720 5720 5717 5716 5715 5714 5714 5714 5714 5714 5712
5734 5734 5721 5715 5724 5738 5742 5736 5745 5754 5756 5757 5756 5755 5756 5757 5758 5758 5757 5754 5752 5751 5749 5747 5745 5742 5740 5737 5734 5732 5730 5729 5727 5723 5723 5722 5721 5720 5718 5715 5713 5712 5711 5710 5710 5712 5711 5711 5710
5726 5730 5741 5729 5728 5724 5732 5734 5737 5741 5742 5743 5744 5745 5746 5748 5749 5750 5750 5749 5747 5745 5743 5742 5740 5738 5735 5733 5730 5727 5726 5724 5722 5720 5719 5719 5717 5716 5714 5712 5710 5708 5707 5706 5706 5707 5706 5706 5707
5730 5729 5724 5717 5705 5706 5721 5724 5728 5725 5727 5731 5732 5735 5738 5739 5740 5742 5742 5741 5740 5740 5738 5737 5735 5733 5730 5728 5725 5724 5721 5719 5717 5716 5714 5712 5711 5710 5708 5707 5705 5704 5703 5703 5702 5703 5702 5701 5701
5712 5712 5712 5715 5717 5706 5707 5718 5730 5727 5725 5724 5727 5729 5729 5731 5733 5733 5734 5734 5734 5733 5733 5730 5729 5727 5724 5722 5720 5717 5716 5713 5712 5710 5709 5708 5706 5704 5703 5702 5701 5700 5699 5698 5697 5698 5697 5697 5696
5710 5708 5705 5695 5698 5706 5707 5709 5721 5723 5722 5721 5721 5721 5722 5723 5725 5727 5728 5728 5726 5726 5725 5723 5722 5721 5720 5717 5715 5713 5711 5708 5707 5705 5704 5703 5701 5700 5699 5698 5697 5695 5695 5694 5693 5692 5693 5692 5691